Location: Hawks Ness
(60.2333°N, 1.1667°W)
Time: 01:52:49
(UTC+00:00)

USA 229 DEB - Pass Details

Date: 22 October 2019
Orbit: 997 x 1216 km, 63.4° (Epoch: 31 October)

Event Time Altitude Azimuth Distance (km) Brightness Sun altitude
Exits shadow 05:23:19 13° 295° (WNW) 2,708 5.3 -12.7°
Maximum altitude 05:29:42 86° 24° (NNE) 1,142 3.9 -11.9°
Drops below altitude 10° 05:37:08 10° 115° (ESE) 3,090 7.3 -11.0°
Sets 05:39:55 0° 116° (ESE) 4,076 8.2 -10.6°
